TimeCDT,TemperatureF,Dew PointF,Humidity,Sea Level PressureIn,VisibilityMPH,Wind Direction,Wind SpeedMPH,Gust SpeedMPH,PrecipitationIn,Events,Conditions,WindDirDegrees,DateUTC
12:15 AM,75.2,62.6,65,30.10,10.0,ESE,5.8,-,N/A,,Clear,110,2013-08-27 05:15:00
12:35 AM,75.2,62.6,65,30.11,10.0,SSE,8.1,-,N/A,,Clear,150,2013-08-27 05:35:00
12:55 AM,77.0,62.6,61,30.10,10.0,South,6.9,-,N/A,,Clear,170,2013-08-27 05:55:00
1:15 AM,77.0,62.6,61,30.10,10.0,South,4.6,-,N/A,,Clear,170,2013-08-27 06:15:00
1:35 AM,73.4,62.6,69,30.10,10.0,South,3.5,-,N/A,,Clear,170,2013-08-27 06:35:00
1:55 AM,73.4,62.6,69,30.10,10.0,Calm,Calm,-,N/A,,Clear,0,2013-08-27 06:55:00
2:15 AM,71.6,62.6,73,30.09,10.0,Calm,Calm,-,N/A,,Clear,0,2013-08-27 07:15:00
2:35 AM,71.6,62.6,73,30.09,10.0,Calm,Calm,-,N/A,,Clear,0,2013-08-27 07:35:00
2:55 AM,71.6,64.4,78,30.09,10.0,Calm,Calm,-,N/A,,Clear,0,2013-08-27 07:55:00
3:15 AM,69.8,64.4,83,30.10,10.0,Calm,Calm,-,N/A,,Clear,0,2013-08-27 08:15:00
3:35 AM,69.8,64.4,83,30.10,10.0,Calm,Calm,-,N/A,,Clear,0,2013-08-27 08:35:00
3:55 AM,69.8,64.4,83,30.10,10.0,Calm,Calm,-,N/A,,Clear,0,2013-08-27 08:55:00
4:15 AM,69.8,64.4,83,30.10,10.0,Calm,Calm,-,N/A,,Clear,0,2013-08-27 09:15:00
4:35 AM,68.0,64.4,88,30.11,10.0,Calm,Calm,-,N/A,,Clear,0,2013-08-27 09:35:00
4:55 AM,68.0,64.4,88,30.11,10.0,East,5.8,-,N/A,,Clear,80,2013-08-27 09:55:00
5:15 AM,68.0,64.4,88,30.12,10.0,East,5.8,-,N/A,,Clear,80,2013-08-27 10:15:00
5:35 AM,69.8,64.4,83,30.12,10.0,East,5.8,-,N/A,,Clear,100,2013-08-27 10:35:00
5:55 AM,69.8,64.4,83,30.12,10.0,ESE,5.8,-,N/A,,Clear,110,2013-08-27 10:55:00
6:15 AM,69.8,64.4,83,30.13,10.0,Calm,Calm,-,N/A,,Clear,0,2013-08-27 11:15:00
6:35 AM,69.8,64.4,83,30.13,10.0,SE,4.6,-,N/A,,Clear,130,2013-08-27 11:35:00
6:55 AM,69.8,66.2,88,30.14,10.0,Calm,Calm,-,N/A,,Scattered Clouds,0,2013-08-27 11:55:00
7:15 AM,71.6,66.2,83,30.14,10.0,Calm,Calm,-,N/A,,Clear,0,2013-08-27 12:15:00
7:35 AM,71.6,66.2,83,30.14,10.0,South,3.5,-,N/A,,Clear,170,2013-08-27 12:35:00
7:55 AM,71.6,68.0,88,30.14,10.0,Calm,Calm,-,N/A,,Scattered Clouds,0,2013-08-27 12:55:00
8:15 AM,73.4,68.0,83,30.14,10.0,SSW,4.6,-,N/A,,Clear,200,2013-08-27 13:15:00
8:35 AM,73.4,68.0,83,30.15,10.0,South,4.6,-,N/A,,Clear,190,2013-08-27 13:35:00
8:55 AM,75.2,68.0,78,30.15,10.0,SSE,3.5,-,N/A,,Clear,160,2013-08-27 13:55:00
9:15 AM,75.2,68.0,78,30.15,10.0,Calm,Calm,-,N/A,,Clear,0,2013-08-27 14:15:00
9:35 AM,77.0,68.0,74,30.16,10.0,SSE,3.5,-,N/A,,Clear,160,2013-08-27 14:35:00
9:55 AM,78.8,68.0,69,30.16,10.0,South,4.6,-,N/A,,Clear,180,2013-08-27 14:55:00
10:15 AM,78.8,69.8,74,30.16,10.0,SSW,3.5,-,N/A,,Clear,210,2013-08-27 15:15:00
10:35 AM,80.6,68.0,65,30.16,10.0,SSW,4.6,-,N/A,,Clear,210,2013-08-27 15:35:00
10:55 AM,82.4,68.0,62,30.16,10.0,WSW,5.8,-,N/A,,Clear,240,2013-08-27 15:55:00
11:15 AM,82.4,68.0,62,30.15,10.0,South,4.6,-,N/A,,Clear,190,2013-08-27 16:15:00
11:35 AM,86.0,68.0,55,30.15,10.0,Calm,Calm,-,N/A,,Clear,0,2013-08-27 16:35:00
11:55 AM,86.0,68.0,55,30.15,10.0,ESE,3.5,-,N/A,,Clear,110,2013-08-27 16:55:00
12:15 PM,87.8,66.2,49,30.14,10.0,Calm,Calm,-,N/A,,Clear,0,2013-08-27 17:15:00
12:35 PM,87.8,66.2,49,30.14,10.0,South,4.6,-,N/A,,Clear,190,2013-08-27 17:35:00
12:55 PM,89.6,66.2,46,30.12,10.0,South,4.6,-,N/A,,Clear,170,2013-08-27 17:55:00
1:15 PM,89.6,66.2,46,30.11,10.0,SW,4.6,-,N/A,,Clear,220,2013-08-27 18:15:00
1:35 PM,91.4,64.4,41,30.10,10.0,South,8.1,-,N/A,,Clear,170,2013-08-27 18:35:00
1:55 PM,91.4,64.4,41,30.10,10.0,South,8.1,-,N/A,,Clear,180,2013-08-27 18:55:00
2:15 PM,93.2,64.4,38,30.09,10.0,South,10.4,-,N/A,,Clear,170,2013-08-27 19:15:00
2:35 PM,93.2,64.4,38,30.08,10.0,South,9.2,-,N/A,,Clear,170,2013-08-27 19:35:00
2:55 PM,93.2,62.6,36,30.07,10.0,SSE,9.2,-,N/A,,Clear,160,2013-08-27 19:55:00
3:15 PM,95.0,62.6,34,30.06,10.0,SW,5.8,-,N/A,,Clear,220,2013-08-27 20:15:00
3:35 PM,91.4,62.6,38,30.05,10.0,ESE,3.5,-,N/A,,Clear,120,2013-08-27 20:35:00
3:55 PM,95.0,62.6,34,30.05,10.0,SSW,5.8,-,N/A,,Clear,200,2013-08-27 20:55:00
4:15 PM,95.0,62.6,34,30.04,10.0,SSW,4.6,9.2,N/A,,Clear,200,2013-08-27 21:15:00
4:35 PM,95.0,62.6,34,30.04,10.0,West,8.1,-,N/A,,Clear,270,2013-08-27 21:35:00
4:55 PM,96.8,62.6,32,30.04,10.0,WSW,6.9,-,N/A,,Clear,250,2013-08-27 21:55:00
5:15 PM,98.6,62.6,30,30.04,10.0,SSW,8.1,-,N/A,,Clear,210,2013-08-27 22:15:00
5:35 PM,95.0,62.6,34,30.04,10.0,South,3.5,-,N/A,,Clear,190,2013-08-27 22:35:00
5:55 PM,95.0,62.6,34,30.03,10.0,South,6.9,-,N/A,,Clear,180,2013-08-27 22:55:00
6:15 PM,93.2,62.6,36,30.03,10.0,SSW,3.5,-,N/A,,Clear,210,2013-08-27 23:15:00
6:35 PM,95.0,62.6,34,30.03,10.0,South,4.6,-,N/A,,Clear,190,2013-08-27 23:35:00
6:55 PM,93.2,62.6,36,30.03,10.0,Calm,Calm,-,N/A,,Clear,0,2013-08-27 23:55:00
7:15 PM,91.4,64.4,41,30.02,10.0,SE,3.5,-,N/A,,Clear,140,2013-08-28 00:15:00
7:35 PM,87.8,64.4,46,30.02,10.0,SE,3.5,-,N/A,,Clear,140,2013-08-28 00:35:00
7:55 PM,86.0,64.4,48,30.02,10.0,SE,3.5,-,N/A,,Clear,130,2013-08-28 00:55:00
8:15 PM,82.4,66.2,58,30.02,10.0,ESE,5.8,-,N/A,,Clear,110,2013-08-28 01:15:00
8:35 PM,82.4,66.2,58,30.03,10.0,ESE,5.8,-,N/A,,Clear,110,2013-08-28 01:35:00
8:55 PM,80.6,66.2,61,30.03,10.0,ESE,5.8,-,N/A,,Clear,110,2013-08-28 01:55:00
9:15 PM,80.6,68.0,65,30.03,10.0,ESE,5.8,-,N/A,,Clear,110,2013-08-28 02:15:00
10:35 PM,78.8,66.2,65,30.04,10.0,Calm,Calm,-,N/A,,Clear,0,2013-08-28 03:35:00
10:55 PM,77.0,66.2,69,30.04,10.0,Calm,Calm,-,N/A,,Clear,0,2013-08-28 03:55:00
11:15 PM,77.0,66.2,69,30.04,10.0,Calm,Calm,-,N/A,,Clear,0,2013-08-28 04:15:00
11:35 PM,77.0,66.2,69,30.04,10.0,Calm,Calm,-,N/A,,Clear,0,2013-08-28 04:35:00
11:55 PM,77.0,66.2,69,30.04,10.0,Calm,Calm,-,N/A,,Clear,0,2013-08-28 04:55:00